Location: Altleiningen
(49.5078°N, 8.0741°E)
Time: 22:03:44
(UTC+00:00)

Cosmos 2263 Rocket - Pass Details

Date: 03 March 2021
Orbit: 825 x 847 km, 71.0° (Epoch: 13 April)

Event Time Altitude Azimuth Distance (km) Brightness Sun altitude
Rises 17:46:32 0° 327° (NNW) 3,374 5.8 -6.1°
Reaches altitude 10° 17:49:02 10° 323° (NW) 2,436 5.1 -6.5°
Maximum altitude 17:54:23 50° 250° (WSW) 1,049 3.3 -7.4°
Drops below altitude 10° 17:59:43 10° 176° (S) 2,423 4.6 -8.2°
Sets 18:02:12 0° 171° (S) 3,354 5.2 -8.6°
